Vertical_Velocity
-1 -1 -1 -2 -2 0 2 4 4 4 1 -8 -5 -0 2 1 0 3 -2 8 1 -1 0 2 2 1 4 2 2 1 2 -4 0 -1 -1 -2 1 1 -1 -1 0 0 -1 -3 5 0 -16 -1 5 5 3 -0 0 -0
-1 -0 0 -0 1 2 -0 -1 -0 1 3 -1 8 2 7 10 4 -0 -5 10 6 -1 -8 1 0 2 2 3 2 1 -2 3 4 -3 -3 -1 -0 0 1 -3 1 -9 -5 -2 -3 -7 4 3 5 4 2 2 -0 -0
-1 0 2 3 2 2 2 3 3 2 1 1 13 3 2 -2 13 -1 2 4 8 5 0 -2 1 3 4 3 2 5 -4 6 0 5 0 -0 -2 -1 -1 -6 2 -5 5 -2 5 -14 -10 -5 -15 -1 3 4 6 4
1 1 2 1 2 2 1 1 2 4 4 6 2 2 20 -11 24 -3 1 12 9 7 -4 -2 4 2 2 -2 -1 2 4 4 3 6 4 2 3 -0 -6 0 1 0 1 -1 -18 -0 10 4 5 -2 -5 -2 0 2
-1 -2 -4 -4 -3 -1 -0 1 -1 3 1 4 3 2 -3 -12 -1 32 -3 -1 7 20 -5 -5 3 4 -1 0 -1 0 -1 -1 3 4 2 0 -4 9 -1 3 -13 -3 -4 3 -27 11 6 -1 1 2 -0 0 0 -1
-1 -2 -0 1 -0 -1 -3 -2 -4 -0 -1 1 -1 3 -0 -6 19 71 19 1 13 -3 11 6 -5 2 -1 2 3 0 3 1 -1 0 -2 -5 -3 8 3 -7 -23 1 4 8 -16 3 2 -1 -2 -2 -1 2 1 -0
1 -0 -1 -1 1 1 1 -2 -1 -4 0 -1 1 4 3 3 -2 19 38 -11 12 23 2 12 -4 -11 -2 -0 -1 -2 2 1 6 6 -7 -1 3 11 -6 -19 9 8 2 1 0 0 -4 4 -2 0 -2 -1 1 1
-4 -3 -2 0 -1 -2 -1 -0 -1 -0 0 -1 1 -2 -1 -1 6 5 15 45 17 42 1 14 -6 -5 2 3 1 -2 -0 3 -3 -1 -9 0 4 5 -30 -2 1 -4 -0 -0 1 0 -4 -2 1 0 1 0 -0 -0
-1 -2 -0 -2 -2 -0 -1 -2 -1 0 1 2 -4 0 -2 1 -2 -2 3 0 19 26 21 4 -5 2 4 4 1 1 -1 1 -1 -3 2 2 -3 -30 2 5 -1 2 -0 -1 0 -1 0 -0 1 1 1 4 2 2
-3 -1 1 0 -1 -1 -1 0 1 1 2 -5 -1 2 -4 -2 5 6 -4 3 20 18 8 -0 -0 1 8 9 0 1 1 -1 0 -0 0 -6 -31 11 6 -3 3 5 2 -0 -0 3 -0 -0 -0 -0 0 2 2 3
-2 -1 -0 -2 -2 -1 -1 -0 1 4 -0 1 0 -1 3 -0 4 6 3 7 2 12 -0 -2 -3 1 3 2 9 5 2 0 -5 -1 -1 -3 -22 2 0 0 -0 0 -1 -1 -1 0 2 0 0 -0 -1 -0 1 0
-0 1 0 -1 -1 1 0 0 7 6 1 3 1 -3 -2 -2 1 2 5 4 -3 -7 -6 -5 -3 -2 2 5 9 1 2 1 0 5 -4 -11 4 -3 -8 -6 -1 -1 1 -0 -1 -0 0 0 1 -1 -1 0 1 1
1 3 1 3 2 3 -1 2 13 -5 4 8 4 -2 -2 1 -0 2 -0 -4 -2 -2 -1 1 -2 4 5 9 5 1 -2 2 1 -0 -11 -6 2 4 -1 -1 -0 -2 -0 0 1 1 -1 -1 1 1 -0 0 2 3
-0 -1 1 4 3 1 -1 24 2 5 3 4 -2 -5 -3 -1 -0 -1 2 3 2 2 3 2 0 4 1 7 -0 2 2 -1 2 -5 -9 1 0 3 2 2 -1 -2 0 1 -2 0 1 1 1 1 2 2 1 0
-2 -1 -1 -1 0 -0 -2 33 5 9 3 -4 -6 -5 -2 0 1 3 4 2 2 4 -4 -3 4 10 3 2 0 -3 -3 -1 1 -3 1 1 2 2 3 -0 3 -2 -3 -1 1 -0 0 0 0 2 2 1 -0 -0
-6 -2 -2 2 3 1 7 14 10 8 5 -1 -1 -4 -5 -6 -6 -5 -1 2 7 6 9 7 2 2 0 2 -0 1 3 1 3 2 2 2 1 3 7 3 2 2 0 -3 -1 1 2 3 1 1 3 2 2 0
-6 -7 -7 -2 -1 -9 2 13 5 2 1 7 -4 -2 -3 -1 -5 -4 -1 0 3 2 -1 -1 -3 2 1 2 -1 -0 -3 -1 -1 -2 0 1 7 5 2 1 6 0 1 2 -1 -1 1 1 3 1 -0 0 -0 -2
1 -6 2 1 1 3 12 2 4 1 2 -2 -3 1 -2 0 -2 -1 -2 -3 -0 3 1 5 3 3 1 -1 -4 -3 1 0 1 2 3 7 8 7 4 2 3 2 0 2 2 0 0 3 -0 -1 -0 -1 -1 -1
-5 -5 -1 1 8 8 4 8 5 -0 -5 -1 1 1 -0 -0 1 1 1 4 2 3 6 0 2 -1 -2 0 3 2 2 2 2 1 1 4 3 7 4 2 3 3 3 2 1 2 -0 0 1 2 1 -0 -0 -1
-6 -4 -1 8 8 5 2 -3 3 3 -1 -5 2 -1 0 2 2 -1 2 5 3 4 5 -2 -2 1 3 2 1 1 1 -0 2 2 2 3 1 4 3 3 2 2 2 2 2 2 2 -0 -1 -1 -0 -0 0 0
-5 19 25 13 14 8 2 -1 0 -2 1 -1 -1 1 1 2 0 1 1 3 2 0 -0 2 2 1 2 1 0 0 0 2 3 4 3 2 1 2 2 1 1 1 1 -0 1 -0 2 1 -1 -1 -0 -0 -2 -1
-1 0 5 7 11 6 2 -0 2 -0 -1 -1 2 4 3 4 3 1 0 1 1 0 1 1 1 1 1 1 1 2 3 3 3 3 2 1 0 1 1 0 0 0 1 -0 -1 -1 -0 -1 -1 -1 0 -1 -1 -2
-2 0 1 2 8 4 -3 -2 0 2 1 -0 -0 2 -0 1 2 1 -2 -0 -0 1 1 1 1 1 1 2 2 2 2 1 0 -0 1 1 2 1 -0 -0 0 1 1 1 0 0 -2 -1 -1 -0 -0 -1 -1 -0
1 -0 -1 1 3 0 0 -1 -0 1 1 2 3 2 2 1 2 1 -0 1 0 1 1 2 2 2 2 2 1 1 2 1 1 1 1 1 0 -1 -1 -1 -1 0 1 1 1 -1 -3 -2 0 -1 -0 -0 -1 1
6 -0 1 1 2 2 0 0 1 3 2 3 3 1 -0 1 2 1 1 1 2 2 2 2 2 2 2 2 2 2 1 1 -0 -1 -1 -2 -2 -2 -2 -1 3 3 2 1 -0 -1 -2 -1 -1 -1 -1 -0 -1 -1
3 2 0 2 1 2 2 1 1 0 1 1 1 1 1 1 1 1 1 2 2 2 2 2 2 1 2 1 1 1 -0 -1 -2 -2 -2 -2 -0 1 2 3 1 -1 -1 -1 -2 -2 -1 -1 0 0 1 -1 -1 -1
4 1 1 1 0 1 -0 0 0 0 0 0 1 1 1 1 1 0 1 1 1 2 2 1 1 1 0 -0 -0 -1 -0 0 0 1 1 1 1 1 1 0 1 -0 -1 -1 -1 -0 1 2 1 -1 -0 1 -1 -3
0 0 0 0 -0 -0 -0 -0 -0 0 1 1 1 0 1 1 0 1 1 1 1 1 2 1 1 0 0 0 0 1 1 0 0 -1 -2 -1 -1 -1 -2 -3 -3 -2 -2 -1 0 1 -1 -1 0 1 -0 -1 4 1
-1 -0 1 0 -0 -1 -1 -0 0 0 0 1 1 2 1 1 1 1 0 0 1 2 -0 0 1 1 0 -1 -2 -2 -1 -1 -1 1 1 1 2 -3 -2 -2 -1 -1 -2 0 -2 -6 -3 0 -1 -0 -2 1 2 3
-2 -1 -1 -1 -0 -2 -1 -1 -1 -1 -1 -1 -1 -2 -3 -2 -2 -1 0 0 0 1 1 1 0 -0 0 2 6 0 -4 -2 -1 -1 1 2 2 3 1 2 2 1 -1 -1 2 6 3 -1 -2 -2 -3 -1 -2 -3
-2 1 -1 -1 -2 -1 -0 0 -0 -1 -1 -2 -1 2 2 -1 -0 1 -0 0 -0 -0 -0 1 -1 -2 -1 -1 -2 2 2 -3 -2 -3 -3 -1 1 0 1 1 -0 -3 -1 4 3 1 -1 2 1 0 1 1 2 -2
0 -2 -1 -1 -2 -1 -0 -1 -0 -1 -0 -1 -1 -0 0 -0 -1 -0 1 1 1 1 -1 -3 -0 -2 -3 -2 -4 -4 -2 0 0 -1 -1 -0 2 1 -1 -2 -5 -5 -2 -1 -3 -2 -3 -4 -3 -1 -2 1 2 1
-2 -1 -1 -0 -0 0 -0 0 0 1 1 1 0 0 0 1 1 2 1 -0 -2 -3 -2 1 -0 -2 -3 -2 -1 -0 -1 -0 -0 -1 -2 -1 -1 -1 -1 0 -7 -9 -2 -3 -3 -2 -1 -1 -2 -1 -2 -4 -4 -3
Height
3014 3012 3009 3007 3004 3002 3000 2999 2997 2996 2995 2995 2996 2995 2994 2992 2989 2989 2989 2988 2985 2983 2985 2986 2987 2988 2988 2988 2989 2989 2990 2989 2988 2988 2988 2986 2984 2983 2983 2982 2982 2983 2985 2985 2988 2989 2983 2979 2980 2981 2980 2978 2979 2979
3004 3001 2998 2995 2993 2991 2989 2987 2985 2984 2983 2982 2983 2984 2984 2983 2981 2979 2980 2980 2977 2974 2976 2977 2977 2978 2979 2980 2981 2980 2982 2983 2983 2982 2983 2982 2981 2979 2978 2979 2978 2980 2978 2979 2980 2977 2975 2975 2976 2975 2974 2974 2975 2976
2993 2990 2987 2984 2981 2978 2976 2973 2971 2970 2969 2969 2971 2970 2971 2973 2973 2969 2970 2971 2969 2966 2966 2966 2968 2969 2969 2970 2971 2972 2973 2976 2977 2978 2977 2977 2976 2975 2973 2973 2972 2971 2973 2970 2971 2968 2969 2970 2971 2971 2971 2970 2971 2971
2983 2979 2975 2972 2968 2965 2962 2960 2957 2955 2954 2954 2955 2957 2961 2961 2962 2959 2958 2961 2960 2958 2956 2959 2960 2959 2960 2960 2961 2962 2964 2966 2968 2969 2969 2968 2968 2968 2964 2966 2964 2966 2965 2963 2960 2958 2960 2961 2961 2961 2961 2961 2963 2964
2970 2966 2962 2958 2955 2952 2949 2946 2944 2942 2940 2940 2939 2942 2945 2948 2950 2948 2945 2946 2948 2953 2950 2949 2950 2952 2951 2950 2952 2953 2955 2958 2958 2959 2959 2959 2959 2960 2955 2953 2949 2956 2955 2953 2950 2952 2950 2949 2949 2949 2949 2950 2952 2953
2958 2954 2950 2946 2942 2939 2935 2933 2930 2928 2928 2926 2927 2928 2930 2935 2939 2940 2926 2931 2933 2941 2943 2941 2941 2943 2943 2944 2945 2945 2947 2948 2947 2948 2949 2949 2949 2953 2946 2935 2939 2945 2944 2943 2942 2941 2940 2939 2939 2939 2939 2941 2942 2943
2948 2944 2940 2936 2932 2928 2924 2922 2920 2917 2916 2914 2913 2913 2916 2920 2923 2925 2920 2920 2923 2928 2930 2932 2931 2932 2936 2936 2936 2937 2939 2939 2941 2941 2941 2942 2942 2943 2933 2922 2933 2936 2934 2933 2931 2929 2928 2929 2928 2929 2929 2930 2932 2934
2941 2936 2932 2927 2922 2918 2914 2912 2910 2908 2906 2905 2904 2903 2904 2906 2909 2912 2909 2915 2915 2913 2916 2918 2918 2923 2924 2926 2929 2930 2930 2932 2932 2934 2933 2931 2932 2930 2918 2920 2925 2924 2922 2922 2922 2920 2921 2921 2920 2920 2920 2920 2921 2923
2933 2928 2923 2918 2913 2909 2906 2903 2901 2900 2898 2896 2895 2895 2895 2896 2898 2900 2905 2908 2910 2909 2902 2902 2909 2912 2916 2916 2920 2922 2924 2925 2926 2924 2924 2926 2921 2913 2912 2915 2915 2914 2912 2911 2911 2912 2912 2912 2911 2910 2911 2911 2913 2914
2924 2918 2913 2908 2903 2900 2897 2896 2894 2893 2891 2890 2891 2891 2888 2889 2891 2895 2896 2901 2904 2900 2898 2900 2901 2905 2912 2911 2913 2918 2917 2919 2918 2918 2917 2914 2905 2903 2907 2903 2902 2903 2903 2903 2902 2903 2903 2902 2902 2902 2901 2902 2906 2909
2914 2908 2903 2898 2895 2892 2889 2888 2888 2887 2887 2887 2886 2887 2888 2887 2889 2891 2893 2893 2895 2891 2892 2896 2899 2903 2903 2906 2907 2909 2908 2910 2911 2910 2911 2904 2893 2899 2896 2895 2895 2896 2897 2898 2897 2896 2896 2895 2896 2896 2896 2897 2901 2903
2904 2898 2894 2890 2887 2884 2881 2881 2882 2881 2882 2883 2885 2885 2885 2886 2887 2888 2887 2887 2886 2888 2890 2892 2894 2898 2899 2900 2900 2902 2904 2904 2904 2902 2903 2894 2891 2891 2891 2891 2891 2892 2892 2892 2892 2891 2891 2890 2891 2893 2894 2896 2898 2899
2894 2889 2884 2880 2876 2873 2872 2874 2875 2875 2878 2881 2883 2884 2883 2884 2883 2882 2881 2881 2881 2883 2885 2886 2889 2891 2892 2894 2895 2897 2897 2899 2898 2895 2891 2884 2886 2885 2886 2886 2887 2888 2889 2888 2887 2887 2887 2887 2889 2890 2891 2892 2894 2895
2884 2878 2872 2867 2864 2864 2865 2867 2865 2871 2874 2877 2880 2881 2881 2879 2878 2878 2879 2880 2881 2881 2882 2883 2884 2885 2886 2888 2889 2890 2891 2892 2889 2884 2878 2880 2880 2880 2881 2882 2884 2884 2884 2884 2884 2884 2884 2885 2885 2886 2887 2887 2888 2889
2875 2868 2862 2857 2855 2855 2857 2859 2860 2864 2868 2872 2876 2875 2874 2875 2876 2876 2877 2878 2878 2878 2879 2879 2880 2881 2881 2883 2883 2885 2886 2882 2876 2873 2876 2875 2876 2876 2877 2878 2879 2881 2880 2880 2880 2881 2881 2882 2882 2883 2884 2884 2884 2885
2867 2861 2854 2849 2847 2848 2850 2851 2858 2861 2864 2868 2868 2870 2871 2873 2874 2876 2877 2877 2876 2876 2875 2876 2876 2876 2877 2877 2877 2876 2876 2872 2871 2872 2873 2872 2871 2871 2873 2874 2875 2875 2876 2877 2877 2877 2878 2879 2879 2880 2880 2880 2882 2882
2864 2857 2851 2847 2846 2845 2848 2853 2856 2860 2863 2863 2863 2867 2869 2870 2872 2873 2874 2873 2872 2873 2874 2874 2874 2873 2872 2872 2872 2871 2870 2870 2871 2870 2870 2869 2867 2868 2869 2870 2871 2872 2872 2874 2875 2875 2875 2876 2876 2876 2876 2877 2877 2878
2862 2856 2854 2850 2847 2847 2849 2852 2856 2858 2859 2860 2862 2864 2865 2868 2869 2870 2870 2870 2870 2869 2870 2870 2870 2869 2869 2868 2867 2866 2866 2867 2866 2865 2865 2864 2864 2865 2866 2867 2868 2868 2869 2870 2870 2871 2871 2871 2871 2871 2872 2872 2871 2871
2859 2855 2853 2850 2849 2850 2851 2853 2855 2855 2857 2859 2860 2862 2863 2865 2866 2866 2866 2866 2865 2866 2866 2866 2866 2864 2864 2863 2863 2863 2863 2863 2862 2861 2861 2861 2861 2861 2862 2863 2864 2864 2864 2865 2865 2865 2865 2865 2864 2864 2864 2863 2862 2862
2858 2855 2854 2853 2852 2852 2852 2853 2854 2855 2855 2857 2858 2858 2860 2861 2862 2862 2862 2861 2860 2860 2860 2860 2859 2859 2859 2859 2859 2859 2858 2858 2857 2856 2856 2857 2857 2857 2858 2859 2859 2859 2859 2859 2858 2858 2858 2858 2857 2855 2855 2854 2853 2852
2858 2857 2854 2853 2852 2851 2851 2850 2851 2852 2853 2854 2855 2856 2856 2856 2856 2856 2856 2855 2855 2855 2854 2855 2854 2855 2854 2854 2854 2854 2853 2853 2852 2852 2853 2853 2854 2853 2854 2854 2853 2853 2852 2852 2851 2850 2849 2848 2848 2847 2846 2846 2845 2843
2856 2854 2853 2852 2850 2849 2849 2848 2849 2849 2851 2850 2851 2851 2851 2852 2851 2851 2851 2851 2850 2850 2850 2849 2849 2849 2849 2849 2849 2848 2848 2848 2848 2849 2849 2849 2849 2849 2849 2848 2847 2846 2845 2844 2843 2842 2841 2841 2840 2839 2838 2836 2835 2833
2853 2852 2850 2849 2849 2847 2848 2847 2847 2847 2847 2847 2847 2847 2847 2846 2846 2846 2846 2845 2845 2844 2844 2844 2844 2844 2844 2844 2844 2845 2845 2845 2845 2844 2844 2844 2843 2843 2842 2841 2840 2839 2838 2837 2836 2835 2834 2833 2831 2830 2829 2828 2826 2825
2850 2848 2847 2846 2845 2844 2844 2844 2844 2843 2843 2842 2842 2841 2841 2841 2840 2839 2839 2839 2839 2839 2839 2839 2840 2840 2841 2841 2841 2841 2841 2841 2840 2840 2839 2839 2838 2837 2836 2835 2835 2833 2832 2830 2829 2828 2826 2825 2824 2822 2821 2819 2818 2817
2848 2846 2845 2842 2841 2840 2839 2839 2838 2839 2838 2838 2837 2836 2835 2836 2835 2835 2834 2834 2834 2835 2836 2837 2837 2838 2838 2838 2838 2838 2838 2837 2837 2836 2835 2834 2833 2832 2831 2829 2828 2826 2825 2823 2822 2820 2818 2817 2816 2814 2813 2811 2809 2808
2841 2839 2840 2837 2836 2837 2836 2835 2835 2834 2834 2833 2833 2832 2832 2832 2832 2831 2830 2831 2832 2834 2835 2836 2837 2837 2837 2837 2836 2835 2834 2834 2833 2832 2831 2830 2828 2826 2824 2823 2820 2818 2816 2815 2813 2811 2810 2808 2806 2804 2802 2800 2798 2797
2836 2835 2835 2834 2834 2834 2833 2833 2832 2831 2831 2830 2830 2830 2830 2830 2829 2829 2830 2831 2833 2834 2835 2836 2837 2836 2836 2835 2834 2833 2831 2830 2828 2826 2824 2822 2820 2819 2817 2814 2812 2810 2807 2805 2803 2801 2799 2797 2795 2793 2791 2789 2787 2785
2834 2833 2834 2833 2832 2832 2831 2830 2830 2829 2829 2828 2829 2828 2828 2828 2829 2830 2831 2833 2834 2836 2837 2836 2836 2835 2834 2832 2830 2828 2827 2824 2822 2819 2816 2814 2811 2808 2806 2803 2801 2798 2796 2793 2791 2789 2786 2784 2782 2780 2778 2776 2776 2773
2835 2834 2834 2833 2832 2831 2830 2830 2829 2829 2828 2828 2828 2828 2828 2828 2830 2832 2834 2835 2836 2837 2836 2836 2835 2833 2830 2828 2824 2822 2820 2818 2815 2812 2809 2806 2803 2799 2795 2792 2789 2786 2783 2781 2778 2775 2773 2771 2769 2767 2765 2764 2762 2761
2837 2835 2834 2833 2833 2833 2833 2832 2831 2830 2829 2829 2829 2829 2830 2832 2833 2835 2836 2837 2837 2837 2836 2834 2832 2829 2826 2824 2820 2815 2811 2808 2805 2803 2799 2797 2793 2790 2786 2782 2779 2775 2772 2768 2766 2764 2760 2756 2754 2752 2749 2748 2746 2745
2839 2839 2838 2837 2836 2836 2835 2835 2834 2833 2833 2833 2833 2835 2835 2836 2836 2837 2837 2837 2836 2834 2833 2830 2827 2823 2819 2816 2812 2810 2805 2800 2796 2793 2789 2786 2782 2778 2774 2770 2766 2761 2758 2756 2752 2748 2745 2742 2739 2737 2735 2733 2731 2730
2843 2841 2841 2840 2839 2839 2838 2838 2838 2838 2838 2838 2838 2838 2838 2838 2838 2837 2836 2835 2833 2831 2828 2824 2821 2816 2812 2808 2803 2799 2796 2792 2788 2783 2779 2775 2770 2765 2760 2755 2750 2745 2742 2738 2735 2731 2728 2725 2722 2720 2717 2716 2715 2713
2844 2843 2842 2841 2841 2840 2840 2841 2840 2839 2839 2839 2839 2839 2838 2838 2837 2837 2835 2833 2830 2826 2823 2819 2814 2808 2803 2799 2795 2790 2786 2781 2777 2772 2767 2763 2759 2754 2749 2744 2737 2731 2728 2725 2722 2719 2715 2711 2707 2703 2700 2697 2695 2694